sat.trackr.live / text

‹ back to catalog

STARLINK-6043

NORAD 56464 · 2023-064S

PAYLOAD ACTIVE UNKNOWN

§ Identity

Operator
Country
US
Launch date
2023-05-10
Launch site
AFWTR
Launch vehicle
Mass (kg)
RCS (m²)

Purposes: comms

External: N2YO · Heavens-Above · Gunter

§ Orbital elements

Epoch: 2026-09-20T14:22:48.280224Z

Period
96.11 min
Inclination
70.0008°
Eccentricity
0.0003340
Mean motion
14.98333541 rev/d
Perigee alt
569.7 km
Apogee alt
574.4 km
Semi-major
6,950.2 km
B*
5.8688e-5
RAAN
12.9375°
Arg perigee
270.7021°
Mean anomaly
89.3755°
Rev number
18,444

§ Raw data

STARLINK-60431 56464U 23064S   26263.59916991  .00000607  00000+0  58688-4 0  99992 56464  70.0008  12.9375 0003340 270.7021  89.3755 14.98333541184447

JSON: /api/v1/satellites/56464 · /tle

For live sub-satellite position, see the globe view (requires WebGL).

§ Visibility from observer

Set your observer location to see the next 7 days of passes ≥ 10°. The values pass through the URL so the page stays shareable.

No JS? Fill the form by hand. The geolocation button needs JavaScript.